Time,TemperatureF,DewpointF,PressureIn,WindDirection,WindDirectionDegrees,WindSpeedMPH,WindSpeedGustMPH,Humidity,HourlyPrecipIn,Conditions,Clouds,dailyrainin,SoftwareType,DateUTC
2013-02-23 01:00:00,25.0,-99.9,-100.00,South,189,5.0,-999.0,-999,-99.99,,,-99.99,,2013-02-23 08:00:00,
2013-02-23 01:53:00,25.0,-99.9,-100.00,South,189,5.0,-999.0,-999,-99.99,,,-99.99,,2013-02-23 08:53:00,
2013-02-23 02:00:00,23.0,-99.9,-100.00,South,180,6.0,-999.0,-999,-99.99,,,-99.99,,2013-02-23 09:00:00,
2013-02-23 02:52:00,23.0,-99.9,-100.00,South,180,6.0,-999.0,-999,-99.99,,,-99.99,,2013-02-23 09:52:00,
2013-02-23 03:00:00,23.0,-99.9,-100.00,South,184,6.0,-999.0,-999,-99.99,,,-99.99,,2013-02-23 10:00:00,
2013-02-23 03:52:00,23.0,-99.9,-100.00,South,184,6.0,-999.0,-999,-99.99,,,-99.99,,2013-02-23 10:52:00,
2013-02-23 04:00:00,24.0,-99.9,-100.00,South,191,7.0,-999.0,-999,-99.99,,,-99.99,,2013-02-23 11:00:00,
2013-02-23 04:53:00,24.0,-99.9,-100.00,South,191,7.0,-999.0,-999,-99.99,,,-99.99,,2013-02-23 11:53:00,
2013-02-23 05:00:00,24.0,-99.9,-100.00,South,179,6.0,-999.0,-999,-99.99,,,-99.99,,2013-02-23 12:00:00,
2013-02-23 05:53:00,24.0,-99.9,-100.00,South,179,6.0,-999.0,-999,-99.99,,,-99.99,,2013-02-23 12:53:00,
2013-02-23 06:00:00,24.0,-99.9,-100.00,SSW,203,6.0,-999.0,-999,-99.99,,,-99.99,,2013-02-23 13:00:00,
2013-02-23 06:52:00,24.0,-99.9,-100.00,SSW,203,6.0,-999.0,-999,-99.99,,,-99.99,,2013-02-23 13:52:00,
2013-02-23 07:00:00,25.0,-99.9,-100.00,South,191,8.0,-999.0,-999,-99.99,,,-99.99,,2013-02-23 14:00:00,
2013-02-23 07:52:00,25.0,-99.9,-100.00,South,191,8.0,-999.0,-999,-99.99,,,-99.99,,2013-02-23 14:52:00,
2013-02-23 08:00:00,29.0,-99.9,-100.00,SSW,200,5.0,-999.0,-999,-99.99,,,-99.99,,2013-02-23 15:00:00,
2013-02-23 08:52:00,29.0,-99.9,-100.00,SSW,200,5.0,-999.0,-999,-99.99,,,-99.99,,2013-02-23 15:52:00,
2013-02-23 09:00:00,33.0,-99.9,-100.00,South,189,5.0,-999.0,-999,-99.99,,,-99.99,,2013-02-23 16:00:00,
2013-02-23 09:52:00,33.0,-99.9,-100.00,South,189,5.0,-999.0,-999,-99.99,,,-99.99,,2013-02-23 16:52:00,
2013-02-23 10:00:00,40.0,-99.9,-100.00,SSW,197,2.0,-999.0,-999,-99.99,,,-99.99,,2013-02-23 17:00:00,
2013-02-23 10:52:00,40.0,-99.9,-100.00,SSW,197,2.0,-999.0,-999,-99.99,,,-99.99,,2013-02-23 17:52:00,
2013-02-23 11:00:00,45.0,-99.9,-100.00,NNE,18,3.0,-999.0,-999,-99.99,,,-99.99,,2013-02-23 18:00:00,
2013-02-23 11:52:00,45.0,-99.9,-100.00,NNE,18,3.0,-999.0,-999,-99.99,,,-99.99,,2013-02-23 18:52:00,
2013-02-23 12:00:00,44.0,-99.9,-100.00,NW,326,3.0,-999.0,-999,-99.99,,,-99.99,,2013-02-23 19:00:00,
2013-02-23 12:52:00,44.0,-99.9,-100.00,NW,326,3.0,-999.0,-999,-99.99,,,-99.99,,2013-02-23 19:52:00,
2013-02-23 13:00:00,49.0,-99.9,-100.00,NNW,341,4.0,-999.0,-999,-99.99,,,-99.99,,2013-02-23 20:00:00,
2013-02-23 13:53:00,49.0,-99.9,-100.00,NNW,341,4.0,-999.0,-999,-99.99,,,-99.99,,2013-02-23 20:53:00,
2013-02-23 14:00:00,47.0,-99.9,-100.00,East,79,5.0,-999.0,-999,-99.99,,,-99.99,,2013-02-23 21:00:00,
2013-02-23 14:52:00,47.0,-99.9,-100.00,East,79,5.0,-999.0,-999,-99.99,,,-99.99,,2013-02-23 21:52:00,
2013-02-23 15:00:00,48.0,-99.9,-100.00,NE,54,6.0,-999.0,-999,-99.99,,,-99.99,,2013-02-23 22:00:00,
2013-02-23 15:52:00,48.0,-99.9,-100.00,NE,54,6.0,-999.0,-999,-99.99,,,-99.99,,2013-02-23 22:52:00,
2013-02-23 16:00:00,48.0,-99.9,-100.00,ENE,62,5.0,-999.0,-999,-99.99,,,-99.99,,2013-02-23 23:00:00,
2013-02-23 16:52:00,48.0,-99.9,-100.00,ENE,62,5.0,-999.0,-999,-99.99,,,-99.99,,2013-02-23 23:52:00,
2013-02-23 17:00:00,40.0,-99.9,-100.00,North,358,5.0,-999.0,-999,-99.99,,,-99.99,,2013-02-24 00:00:00,
2013-02-23 17:52:00,40.0,-99.9,-100.00,North,358,5.0,-999.0,-999,-99.99,,,-99.99,,2013-02-24 00:52:00,
2013-02-23 18:00:00,37.0,-99.9,-100.00,NW,326,5.0,-999.0,-999,-99.99,,,-99.99,,2013-02-24 01:00:00,
2013-02-23 18:52:00,37.0,-99.9,-100.00,NW,326,5.0,-999.0,-999,-99.99,,,-99.99,,2013-02-24 01:52:00,
2013-02-23 19:00:00,35.0,-99.9,-100.00,NW,315,5.0,-999.0,-999,-99.99,,,-99.99,,2013-02-24 02:00:00,
2013-02-23 19:52:00,35.0,-99.9,-100.00,NW,315,5.0,-999.0,-999,-99.99,,,-99.99,,2013-02-24 02:52:00,
2013-02-23 20:00:00,35.0,-99.9,-100.00,NNW,329,7.0,-999.0,-999,-99.99,,,-99.99,,2013-02-24 03:00:00,
2013-02-23 20:52:00,35.0,-99.9,-100.00,NNW,329,7.0,-999.0,-999,-99.99,,,-99.99,,2013-02-24 03:52:00,
2013-02-23 21:00:00,34.0,-99.9,-100.00,NW,326,3.0,-999.0,-999,-99.99,,,-99.99,,2013-02-24 04:00:00,
2013-02-23 21:52:00,34.0,-99.9,-100.00,NW,326,3.0,-999.0,-999,-99.99,,,-99.99,,2013-02-24 04:52:00,
2013-02-23 22:00:00,34.0,-99.9,-100.00,NNW,335,5.0,-999.0,-999,-99.99,,,-99.99,,2013-02-24 05:00:00,
2013-02-23 22:52:00,34.0,-99.9,-100.00,NNW,335,5.0,-999.0,-999,-99.99,,,-99.99,,2013-02-24 05:52:00,
2013-02-23 23:00:00,30.0,-99.9,-100.00,NNW,339,4.0,-999.0,-999,-99.99,,,-99.99,,2013-02-24 06:00:00,
2013-02-23 23:52:00,30.0,-99.9,-100.00,NNW,339,4.0,-999.0,-999,-99.99,,,-99.99,,2013-02-24 06:52:00,